Time,TemperatureF,DewpointF,PressureIn,WindDirection,WindDirectionDegrees,WindSpeedMPH,WindSpeedGustMPH,Humidity,HourlyPrecipIn,Conditions,Clouds,dailyrainin,SolarRadiationWatts/m^2,SoftwareType,DateUTC
2013-09-16 00:00:00,69.0,32.0,-100.00,WSW,256,2.0,5.0,25,0.00,,,0.00,0.000000,,2013-09-16 07:00:00,
2013-09-16 00:22:00,69.0,32.0,-100.00,WSW,256,2.0,5.0,25,0.00,,,0.00,0.000000,,2013-09-16 07:22:00,
2013-09-16 00:32:00,69.0,32.0,-100.00,WSW,256,2.0,5.0,25,0.00,,,0.00,0.000000,,2013-09-16 07:32:00,
2013-09-16 00:43:00,69.0,32.0,-100.00,WSW,256,2.0,5.0,25,0.00,,,0.00,0.000000,,2013-09-16 07:43:00,
2013-09-16 00:52:00,69.0,32.0,-100.00,WSW,256,2.0,5.0,25,0.00,,,0.00,0.000000,,2013-09-16 07:52:00,
2013-09-16 01:00:00,70.0,40.0,-100.00,NNW,345,0.0,5.0,33,0.00,,,-99.99,0.000000,,2013-09-16 08:00:00,
2013-09-16 01:22:00,70.0,40.0,-100.00,NNW,345,0.0,5.0,33,0.00,,,-99.99,0.000000,,2013-09-16 08:22:00,
2013-09-16 01:32:00,70.0,40.0,-100.00,NNW,345,0.0,5.0,33,0.00,,,-99.99,0.000000,,2013-09-16 08:32:00,
2013-09-16 01:42:00,70.0,40.0,-100.00,NNW,345,0.0,5.0,33,0.00,,,-99.99,0.000000,,2013-09-16 08:42:00,
2013-09-16 01:52:00,70.0,40.0,-100.00,NNW,345,0.0,5.0,33,0.00,,,-99.99,0.000000,,2013-09-16 08:52:00,
2013-09-16 02:00:00,66.0,40.0,-100.00,SW,220,0.0,6.0,39,0.00,,,0.00,0.000000,,2013-09-16 09:00:00,
2013-09-16 02:22:00,66.0,40.0,-100.00,SW,220,0.0,6.0,39,0.00,,,0.00,0.000000,,2013-09-16 09:22:00,
2013-09-16 02:34:00,66.0,40.0,-100.00,SW,220,0.0,6.0,39,0.00,,,0.00,0.000000,,2013-09-16 09:34:00,
2013-09-16 02:43:00,66.0,40.0,-100.00,SW,220,0.0,6.0,39,0.00,,,0.00,0.000000,,2013-09-16 09:43:00,
2013-09-16 02:53:00,66.0,40.0,-100.00,SW,220,0.0,6.0,39,0.00,,,0.00,0.000000,,2013-09-16 09:53:00,
2013-09-16 03:00:00,63.0,38.0,-100.00,NW,322,0.0,3.0,39,0.00,,,0.00,0.000000,,2013-09-16 10:00:00,
2013-09-16 03:42:00,63.0,38.0,-100.00,NW,322,0.0,3.0,39,0.00,,,0.00,0.000000,,2013-09-16 10:42:00,
2013-09-16 03:53:00,63.0,38.0,-100.00,NW,322,0.0,3.0,39,0.00,,,0.00,0.000000,,2013-09-16 10:53:00,
2013-09-16 04:42:00,62.0,34.0,-100.00,WNW,295,0.0,3.0,35,0.00,,,0.00,0.000000,,2013-09-16 11:42:00,
2013-09-16 05:42:00,61.0,29.0,-100.00,WSW,258,5.0,5.0,30,0.00,,,0.00,0.000000,,2013-09-16 12:42:00,
2013-09-16 06:00:00,63.0,31.0,-100.00,West,267,3.0,8.0,30,0.00,,,0.00,0.000000,,2013-09-16 13:00:00,
2013-09-16 06:42:00,63.0,31.0,-100.00,West,267,3.0,8.0,30,0.00,,,0.00,0.000000,,2013-09-16 13:42:00,
2013-09-16 06:52:00,63.0,31.0,-100.00,West,267,3.0,8.0,30,0.00,,,0.00,0.000000,,2013-09-16 13:52:00,
2013-09-16 07:00:00,64.0,30.0,-100.00,WSW,248,4.0,8.0,28,0.00,,,0.00,0.000000,,2013-09-16 14:00:00,
2013-09-16 07:22:00,64.0,30.0,-100.00,WSW,248,4.0,8.0,28,0.00,,,0.00,0.000000,,2013-09-16 14:22:00,
2013-09-16 07:32:00,64.0,30.0,-100.00,WSW,248,4.0,8.0,28,0.00,,,0.00,0.000000,,2013-09-16 14:32:00,
2013-09-16 07:42:00,64.0,30.0,-100.00,WSW,248,4.0,8.0,28,0.00,,,0.00,0.000000,,2013-09-16 14:42:00,
2013-09-16 07:52:00,64.0,30.0,-100.00,WSW,248,4.0,8.0,28,0.00,,,0.00,0.000000,,2013-09-16 14:52:00,
2013-09-16 08:43:00,65.0,25.0,-100.00,NNW,343,1.0,7.0,22,0.00,,,0.00,4.000000,,2013-09-16 15:43:00,
2013-09-16 09:00:00,74.0,32.0,-100.00,NE,35,2.0,6.0,21,0.00,,,0.00,146.000000,,2013-09-16 16:00:00,
2013-09-16 09:43:00,74.0,32.0,-100.00,NE,35,2.0,6.0,21,0.00,,,0.00,146.000000,,2013-09-16 16:43:00,
2013-09-16 09:52:00,74.0,32.0,-100.00,NE,35,2.0,6.0,21,0.00,,,0.00,146.000000,,2013-09-16 16:52:00,
2013-09-16 10:00:00,77.0,24.0,-100.00,SE,138,5.0,7.0,14,0.00,,,0.00,382.000000,,2013-09-16 17:00:00,
2013-09-16 10:23:00,77.0,24.0,-100.00,SE,138,5.0,7.0,14,0.00,,,0.00,382.000000,,2013-09-16 17:23:00,
2013-09-16 10:33:00,77.0,24.0,-100.00,SE,138,5.0,7.0,14,0.00,,,0.00,382.000000,,2013-09-16 17:33:00,
2013-09-16 10:42:00,77.0,24.0,-100.00,SE,138,5.0,7.0,14,0.00,,,0.00,382.000000,,2013-09-16 17:42:00,
2013-09-16 10:53:00,77.0,24.0,-100.00,SE,138,5.0,7.0,14,0.00,,,0.00,382.000000,,2013-09-16 17:53:00,
2013-09-16 11:00:00,82.0,28.0,-100.00,South,183,8.0,17.0,14,0.00,,,0.00,568.000000,,2013-09-16 18:00:00,
2013-09-16 11:22:00,82.0,28.0,-100.00,South,183,8.0,17.0,14,0.00,,,0.00,568.000000,,2013-09-16 18:22:00,
2013-09-16 11:32:00,82.0,28.0,-100.00,South,183,8.0,17.0,14,0.00,,,0.00,568.000000,,2013-09-16 18:32:00,
2013-09-16 11:42:00,82.0,28.0,-100.00,South,183,8.0,17.0,14,0.00,,,0.00,568.000000,,2013-09-16 18:42:00,
2013-09-16 11:52:00,82.0,28.0,-100.00,South,183,8.0,17.0,14,0.00,,,0.00,568.000000,,2013-09-16 18:52:00,
2013-09-16 12:00:00,82.0,26.0,-100.00,SSE,151,6.0,23.0,13,0.00,,,0.00,784.000000,,2013-09-16 19:00:00,
2013-09-16 12:22:00,82.0,26.0,-100.00,SSE,151,6.0,23.0,13,0.00,,,0.00,784.000000,,2013-09-16 19:22:00,
2013-09-16 12:32:00,82.0,26.0,-100.00,SSE,151,6.0,23.0,13,0.00,,,0.00,784.000000,,2013-09-16 19:32:00,
2013-09-16 12:42:00,82.0,26.0,-100.00,SSE,151,6.0,23.0,13,0.00,,,0.00,784.000000,,2013-09-16 19:42:00,
2013-09-16 12:53:00,82.0,26.0,-100.00,SSE,151,6.0,23.0,13,0.00,,,0.00,784.000000,,2013-09-16 19:53:00,
2013-09-16 13:00:00,86.0,29.0,-100.00,West,273,5.0,21.0,13,0.00,,,0.00,927.000000,,2013-09-16 20:00:00,
2013-09-16 13:22:00,86.0,29.0,-100.00,West,273,5.0,21.0,13,0.00,,,0.00,927.000000,,2013-09-16 20:22:00,
2013-09-16 13:32:00,86.0,29.0,-100.00,West,273,5.0,21.0,13,0.00,,,0.00,927.000000,,2013-09-16 20:32:00,
2013-09-16 13:43:00,86.0,29.0,-100.00,West,273,5.0,21.0,13,0.00,,,0.00,927.000000,,2013-09-16 20:43:00,
2013-09-16 13:52:00,86.0,29.0,-100.00,West,273,5.0,21.0,13,0.00,,,0.00,927.000000,,2013-09-16 20:52:00,
2013-09-16 14:00:00,88.0,29.0,-100.00,South,171,9.0,25.0,12,0.00,,,0.00,979.000000,,2013-09-16 21:00:00,
2013-09-16 14:22:00,88.0,29.0,-100.00,South,171,9.0,25.0,12,0.00,,,0.00,979.000000,,2013-09-16 21:22:00,
2013-09-16 14:34:00,88.0,29.0,-100.00,South,171,9.0,25.0,12,0.00,,,0.00,979.000000,,2013-09-16 21:34:00,
2013-09-16 14:44:00,88.0,29.0,-100.00,South,171,9.0,25.0,12,0.00,,,0.00,979.000000,,2013-09-16 21:44:00,
2013-09-16 14:56:00,88.0,29.0,-100.00,South,171,9.0,25.0,12,0.00,,,0.00,979.000000,,2013-09-16 21:56:00,
2013-09-16 15:00:00,85.0,22.0,-100.00,SSW,199,9.0,20.0,10,0.00,,,0.00,970.000000,,2013-09-16 22:00:00,
2013-09-16 15:43:00,85.0,22.0,-100.00,SSW,199,9.0,20.0,10,0.00,,,0.00,970.000000,,2013-09-16 22:43:00,
2013-09-16 15:53:00,85.0,22.0,-100.00,SSW,199,9.0,20.0,10,0.00,,,0.00,970.000000,,2013-09-16 22:53:00,
2013-09-16 16:00:00,87.0,26.0,-100.00,SSW,194,9.0,26.0,11,0.00,,,0.00,888.000000,,2013-09-16 23:00:00,
2013-09-16 16:22:00,87.0,26.0,-100.00,SSW,194,9.0,26.0,11,0.00,,,0.00,888.000000,,2013-09-16 23:22:00,
2013-09-16 16:34:00,87.0,26.0,-100.00,SSW,194,9.0,26.0,11,0.00,,,0.00,888.000000,,2013-09-16 23:34:00,
2013-09-16 16:43:00,87.0,26.0,-100.00,SSW,194,9.0,26.0,11,0.00,,,0.00,888.000000,,2013-09-16 23:43:00,
2013-09-16 16:52:00,87.0,26.0,-100.00,SSW,194,9.0,26.0,11,0.00,,,0.00,888.000000,,2013-09-16 23:52:00,
2013-09-16 17:00:00,87.0,26.0,-100.00,West,280,4.0,26.0,11,0.00,,,0.00,741.000000,,2013-09-17 00:00:00,
2013-09-16 17:22:00,87.0,26.0,-100.00,West,280,4.0,26.0,11,0.00,,,0.00,741.000000,,2013-09-17 00:22:00,
2013-09-16 17:32:00,87.0,26.0,-100.00,West,280,4.0,26.0,11,0.00,,,0.00,741.000000,,2013-09-17 00:32:00,
2013-09-16 17:42:00,87.0,26.0,-100.00,West,280,4.0,26.0,11,0.00,,,0.00,741.000000,,2013-09-17 00:42:00,
2013-09-16 17:52:00,87.0,26.0,-100.00,West,280,4.0,26.0,11,0.00,,,0.00,741.000000,,2013-09-17 00:52:00,
2013-09-16 18:42:00,88.0,33.0,-100.00,WNW,297,4.0,15.0,14,0.00,,,0.00,543.000000,,2013-09-17 01:42:00,
2013-09-16 19:00:00,81.0,35.0,-100.00,West,279,5.0,16.0,19,-99.99,,,0.00,314.000000,,2013-09-17 02:00:00,
2013-09-16 19:22:00,81.0,35.0,-100.00,West,279,5.0,16.0,19,-99.99,,,0.00,314.000000,,2013-09-17 02:22:00,
2013-09-16 19:32:00,81.0,35.0,-100.00,West,279,5.0,16.0,19,-99.99,,,0.00,314.000000,,2013-09-17 02:32:00,
2013-09-16 19:42:00,81.0,35.0,-100.00,West,279,5.0,16.0,19,-99.99,,,0.00,314.000000,,2013-09-17 02:42:00,
2013-09-16 19:52:00,81.0,35.0,-100.00,West,279,5.0,16.0,19,-99.99,,,0.00,314.000000,,2013-09-17 02:52:00,
2013-09-16 20:00:00,74.0,37.0,-100.00,East,80,3.0,12.0,26,0.00,,,0.00,69.000000,,2013-09-17 03:00:00,
2013-09-16 20:45:00,74.0,37.0,-100.00,East,80,3.0,12.0,26,0.00,,,0.00,69.000000,,2013-09-17 03:45:00,
2013-09-16 20:54:00,74.0,37.0,-100.00,East,80,3.0,12.0,26,0.00,,,0.00,69.000000,,2013-09-17 03:54:00,
2013-09-16 21:00:00,70.0,36.0,-100.00,NNW,331,1.0,15.0,29,0.00,,,0.00,0.000000,,2013-09-17 04:00:00,
2013-09-16 21:24:00,70.0,36.0,-100.00,NNW,331,1.0,15.0,29,0.00,,,0.00,0.000000,,2013-09-17 04:24:00,
2013-09-16 21:34:00,70.0,36.0,-100.00,NNW,331,1.0,15.0,29,0.00,,,0.00,0.000000,,2013-09-17 04:34:00,
2013-09-16 21:44:00,70.0,36.0,-100.00,NNW,331,1.0,15.0,29,0.00,,,0.00,0.000000,,2013-09-17 04:44:00,
2013-09-16 21:54:00,70.0,36.0,-100.00,NNW,331,1.0,15.0,29,0.00,,,0.00,0.000000,,2013-09-17 04:54:00,
2013-09-16 22:00:00,67.0,33.0,-100.00,WSW,248,3.0,8.0,28,0.00,,,0.00,0.000000,,2013-09-17 05:00:00,
2013-09-16 22:23:00,67.0,33.0,-100.00,WSW,248,3.0,8.0,28,0.00,,,0.00,0.000000,,2013-09-17 05:23:00,
2013-09-16 22:34:00,67.0,33.0,-100.00,WSW,248,3.0,8.0,28,0.00,,,0.00,0.000000,,2013-09-17 05:34:00,
2013-09-16 22:42:00,67.0,33.0,-100.00,WSW,248,3.0,8.0,28,0.00,,,0.00,0.000000,,2013-09-17 05:42:00,
2013-09-16 22:52:00,67.0,33.0,-100.00,WSW,248,3.0,8.0,28,0.00,,,0.00,0.000000,,2013-09-17 05:52:00,
2013-09-16 23:00:00,67.0,32.0,-100.00,SW,233,4.0,8.0,27,0.00,,,0.00,0.000000,,2013-09-17 06:00:00,
2013-09-16 23:22:00,67.0,32.0,-100.00,SW,233,4.0,8.0,27,0.00,,,0.00,0.000000,,2013-09-17 06:22:00,
2013-09-16 23:32:00,67.0,32.0,-100.00,SW,233,4.0,8.0,27,0.00,,,0.00,0.000000,,2013-09-17 06:32:00,
2013-09-16 23:42:00,67.0,32.0,-100.00,SW,233,4.0,8.0,27,0.00,,,0.00,0.000000,,2013-09-17 06:42:00,
2013-09-16 23:52:00,67.0,32.0,-100.00,SW,233,4.0,8.0,27,0.00,,,0.00,0.000000,,2013-09-17 06:52:00,